Вернуться в каталог

GEOSKAN-1

АктивенНаукаSSO
NORAD 64880·PAYLOAD·🇷🇺 Russia
Это название спутника еще не подтверждено официальными источниками.

Запущен Jul 25, 2025 с Vostochny Cosmodrome

Loading…

Ближайшие Пролёты (ближайшие 24 часа)

TLE

СвежийSource: Space-Track

Эпоха: Sep 14, 2026, 14:59 UTC

1 64880U 25155E   26257.62460052  .00009305  00000-0  29939-3 0  9993
2 64880  97.4662 226.9107 0006230 203.9850 156.1102 15.32440577 94464

Отслеживайте GEOSKAN-1 в реальном времени с AllMySat

Download on the App Store